Regional Weather Roundup
Issued by NWS

Home | Current Version | Previous Version | Graphics & Text | Print | Product List | Glossary On
Versions: 1 2 3 4 5 6 7 8 9 10 11 12 13 14 15 16 17 18 19 20 21 22 23 24 25 26 27 28 29 30 31 32 33 34 35 36 37 38 39 40 41 42 43 44 45 46 47 48 49 50
000
ASUS43 KLOT 191308
RWRIL

ILLINOIS REGIONAL WEATHER ROUNDUP
NATIONAL WEATHER SERVICE CHICAGO/ROMEOVILLE IL
800 AM CDT SAT AUG 19 2017

NOTE: "FAIR" INDICATES FEW OR NO CLOUDS BELOW 12,000 FEET WITH NO
SIGNIFICANT WEATHER AND/OR OBSTRUCTIONS TO VISIBILITY.

* THESE STATIONS ARE NOT UNDER NWS QUALITY CONTROL. THEY ALSO MAY NOT
  REPORT WEATHER SUCH AS PRECIPITATION OR FOG.

ILZ001-002-007-009-015-016-024-191400-
NORTHWEST ILLINOIS

CITY           SKY/WX    TMP DP  RH WIND       PRES   REMARKS
MOLINE         SUNNY     66  62  87 CALM      29.96R
STERLING*      MOSUNNY   65  61  87 CALM      29.97R
SAVANNA*       SUNNY     63  60  92 N5        29.98R
$$

ILZ003-004-008-010-011-017-018-191400-
NORTH CENTRAL ILLINOIS

CITY           SKY/WX    TMP DP  RH WIND       PRES   REMARKS
ROCKFORD       SUNNY     63  60  90 CALM      29.97S
FREEPORT*      SUNNY     60  60  99 CALM      29.99R FOG
ROCHELLE*      MOSUNNY   60  59  98 CALM      29.98R FOG
DE KALB*       SUNNY     64  62  96 NE3       29.97S
PERU*          CLOUDY    64  60  87 E6        29.96S
$$

ILZ005-006-012>014-019>023-191400-
NORTHEAST ILLINOIS

CITY           SKY/WX    TMP DP  RH WIND       PRES   REMARKS
CHICAGO-OHARE  MOSUNNY   68  61  78 N5        29.96R
CHICAGO-MIDWAY MOSUNNY   68  62  81 NW6       29.96R
AURORA         SUNNY     63  61  93 N3        29.97S FOG
LANSING*       SUNNY     68  60  75 NW5       29.96R
JOLIET*        SUNNY     67  63  87 NE3       29.96S
WAUKEGAN       SUNNY     67  63  87 CALM      29.94S
DUPAGE AIRPORT SUNNY     65  62  90 CALM      29.95F
KANKAKEE*      SUNNY     67  63  86 CALM      29.97R
WHEELING       SUNNY     67  64  90 NW3       29.97R
MORRIS*        MOSUNNY   64  62  94 CALM      29.95F
ROMEOVILLE*    SUNNY     65  60  82 CALM      29.97S
NORTHERLY ISL    N/A     70  61  73 NW5         N/A
$$

LMZ740>746-191400-
SOUTHERN LAKE MICHIGAN

STATION/POSITION SKY/WX   TEMP    WIND        PRES    VSBY  WAVE
                          AIR SEA DIR/SP/G                  HT/PER
                          (F)     (DEG/KT/KT) (MB)    (MI)  (FT/S)
SOUTHERN BUOY              69 71  350/ 10/ 10 1013.1          2/ 4
WILMETTE HARBOR            68 73  330/  8/ 10   N/A           2/ 3
HARRISON CRIB              68     320/  8/  8   N/A
CALUMET HARBOR             69     250/  1/  3 1013.8R
BURNS HARBOR               71     330/  6/  8 1014.9R
MICHIGAN CITY              70     340/ 10/ 11   N/A
MICHIGAN CITY 6N           71 74  350/ 10/ 12   N/A           3/ 4
ST. JOSEPH                 71 73  360/  8/ 10 1013.7          2/ 4
$$

ILZ025>027-034>036-040-047-049-050-058-095>099-191400-
WEST-CENTRAL ILLINOIS

CITY           SKY/WX    TMP DP  RH WIND       PRES   REMARKS
QUINCY         SUNNY     68  65  90 CALM      29.94S
GALESBURG*     SUNNY     65  61  86 E3        29.96S
MACOMB*        SUNNY     65  64  97 E6        29.97S
JACKSONVILLE*  SUNNY     67  65  93 CALM      29.94S
PITTSFIELD*    SUNNY     70  68  94 W3        29.96R
$$

ILZ028>032-037-038-041>044-048-051>054-059>061-191400-
CENTRAL ILLINOIS

CITY           SKY/WX    TMP DP  RH WIND       PRES   REMARKS
PONTIAC        CLOUDY    66  65  99 E5        29.96F
BLOOMINGTON    CLOUDY    64  61  90 SE9       29.95F
DECATUR        MOSUNNY   68  65  90 CALM      29.95R
PEORIA         CLOUDY    68  62  81 CALM      29.95R
LACON*         CLOUDY    66  63  89 NE6       29.94R
LINCOLN*       SUNNY     67  65  92 NE6       29.95S
SPRINGFIELD    SUNNY     70  68  93 NE6       29.95R
TAYLORVILLE    SUNNY     69  67  92 CALM      29.95R
$$

ILZ033-039-045-046-055>057-062-063-191400-
EAST-CENTRAL ILLINOIS

CITY           SKY/WX    TMP DP  RH WIND       PRES   REMARKS
CHAMPAIGN      MOSUNNY   70  65  84 N5        29.96R
RANTOUL*       PTSUNNY   69  66  88 NW9       29.98R
MATTOON        SUNNY     73  68  84 NW5       29.93S
PARIS*         SUNNY     70  67  90 NW7       29.96R
$$

ILZ079-100>102-191400-
SOUTHWEST ILLINOIS

CITY           SKY/WX    TMP DP  RH WIND       PRES   REMARKS
ALTON          SUNNY     72  70  94 SW6       29.96R
BELLEVILLE     SUNNY     74  67  80 SW5       29.96R
CAHOKIA*       MOSUNNY   73  67  81 CALM      29.95R
SPARTA*        SUNNY     73  68  86 CALM      29.96S
$$

ILZ064>066-069>071-074>076-080>082-084>086-088>090-092>094-191400-
SOUTH-CENTRAL ILLINOIS

CITY           SKY/WX    TMP DP  RH WIND       PRES   REMARKS
CARBONDALE     MOSUNNY   71  70  96 NE5       29.95R
CAIRO*         SUNNY     74  69  86 S3        29.95S
EFFINGHAM*     MOSUNNY   72  71  96 CALM      29.97R
MARION         MOSUNNY   73  72  94 CALM      29.96R
MT. VERNON       N/A     68  67  96 S3        29.97R
CENTRALIA*     PTSUNNY   72  70  93 CALM      29.95S
SALEM*         PTSUNNY   74  69  83 CALM      29.96R
METROPOLIS*    SUNNY     75  69  81 CALM      29.96S
$$

ILZ067-068-072-073-078-083-087-091-191400-
SOUTHEAST ILLINOIS

CITY           SKY/WX    TMP DP  RH WIND       PRES   REMARKS
LAWRENCEVILLE  PTSUNNY   73  67  81 SW6       29.95R
FLORA*         MOSUNNY   73  65  76 W7        29.95F
FAIRFIELD*     TSTM      66  66 100 CALM      29.95F
HARRISBURG*    PTSUNNY   70  69  96 CALM      29.96S
ROBINSON*      SUNNY     72  68  86 CALM      29.95R
CARMI*         TSTM      69  67  94 N16G25    29.97R
$$

ABBREVIATIONS USED IN REMARKS
   TC - TEMPERATURE IN CELSIUS
  WCI - WIND CHILL INDEX
   HX - HEAT INDEX
  VSB - VISIBILITY
$$





USA.gov is the U.S. government's official web portal to all federal, state and local government web resources and services.